FOX-1

Satellite information

Favourite Embed

Satellite Type and Status

PAYLOADIN ORBIT

Key statistics

Satellite FOX-1 at a glance.

Uptime

3559

Days in orbit

Revolutions

≈ 14.9

Per day

Orbit

LEO

Low Earth Orbit

Inclination

64.8

Latest

Satellite identification and parameters

Extended collection of information and parameters for FOX-1.

Object identification

Identified? True

Debris? False

Object name: FOX-1

International designator: 2015-058D

Object number (NORAD): 40967

Object ID (CCSDS): 40967

Country: UNITED STATES OF AMERICA (US)

Current information (Y/N): Y

RCS size: MEDIUM

Orbital parameters

Period: 96.76 minutes

Inclination: 64.7762 deg

SMA: 6981.649 km

Apoapsis: 713.346 km

Periapsis: 493.681 km

RAAN: 273.881 deg

Eccentricy: 0.0157316

Argument of periapsis: 187.0241 deg

Mean anomaly: 172.8668 deg

Mean motion: 14.88215357 rev/day

Mean motion (dot): 0.00003437 rev/day2

B* drag term: 0.00031051 1/REarth

Two-line elements (TLE)

Creation date: July 5, 2025, 5:45 p.m.

Reference frame: TEME

Reference center: EARTH

Epoch: July 5, 2025, 2:34 p.m. UTC

TLE line 0: 0 FOX-1

TLE line 1: 1 40967U 15058D 25186.60716244 .00003437 00000-0 31051-3 0 9997

TLE line 2: 2 40967 64.7762 273.8810 0157316 187.0241 172.8668 14.88215357 61947

Live tracking on map

Real-time ground track for satellite FOX-1.

In-orbit conjunctions

There are no conjunctions computed for FOX-1, at the moment. Check back to stay up to date, as we update our databases every day.

Go to all conjunctions

Associated space launch

Classified payload for the U.S. National Reconnaissance Office.

FOX-1 was lifted into orbit during the mission ‘Atlas V 401 | NROL-55 (Multipayload mission)’, on board a Atlas V 401 space rocket.

The launch took place on Oct. 8, 2015, 12:49 p.m. from Space Launch Complex 3E.

For more information about the launch, click the button.

Launch to space Atlas V 401 | NROL-55 (Multipayload mission)
Atlas V 401 | NROL-55 (Multipayload mission)

Agency: N/A

Status: Launch Successful

Launch date: Oct. 8, 2015, 12:49 p.m. UTC

Rocket: Atlas V 401

Launch pad: Space Launch Complex 3E

Location: Vandenberg SFB, CA, USA

...

Latest news about this satellite

There are no fresh news available about this satellite. Check back as we update our databases every day.


Newsletter sign-up

Weekly statistics, charts and insights to help you stay on top of the space industry.